Wetterdaten Sommer 2005

Datum T max T min Regen
01.06.2005 22.8 °C 9.7 °C 0 mm
02.06.2005 26.4 °C 11.2 °C 0 mm
03.06.2005 31.6 °C 14.3 °C 0 mm
04.06.2005 22.3 °C 15.5 °C 0.4 mm
05.06.2005 18.6 °C 12.8 °C 0 mm
06.06.2005 17.1 °C 12.9 °C 2.5 mm
07.06.2005 15.9 °C 9.1 °C 0 mm
08.06.2005 18.9 °C 7.1 °C 0 mm
09.06.2005 19.7 °C 7.8 °C 0 mm
10.06.2005 20.9 °C 7.3 °C 0 mm
11.06.2005 19.4 °C 12.3 °C 0 mm
12.06.2005 22.6 °C 8.4 °C 0 mm
13.06.2005 25.9 °C 11.2 °C 0 mm
14.06.2005 21.9 °C 16.3 °C 0 mm
15.06.2005 26.6 °C 15.1 °C 0 mm
16.06.2005 25.4 °C 16 °C 0 mm
17.06.2005 27.4 °C 17.8 °C 0 mm
18.06.2005 28 °C 19.3 °C 0 mm
19.06.2005 30.1 °C 15.5 °C 0 mm
20.06.2005 32.7 °C 17.4 °C 0 mm
21.06.2005 34.1 °C 19.3 °C 0 mm
22.06.2005 30.2 °C 21.4 °C 0 mm
23.06.2005 32.8 °C 18.3 °C 0 mm
24.06.2005 34.8 °C 22.7 °C 0 mm
25.06.2005 28.3 °C 18.7 °C 41.4 mm
26.06.2005 28.6 °C 19.6 °C 0 mm
27.06.2005 31.2 °C 19.3 °C 0 mm
28.06.2005 32.7 °C 21.6 °C 0 mm
29.06.2005 29.1 °C 18.7 °C 4 mm
30.06.2005 26.9 °C 16.7 °C 0.4 mm
01.07.2005 20.7 °C 14.4 °C 14.8 mm
02.07.2005 21.3 °C 15.7 °C 1.1 mm
03.07.2005 27 °C 18.1 °C 0 mm
04.07.2005 29.4 °C 15 °C 3.6 mm
05.07.2005 22.6 °C 14.2 °C 0 mm
06.07.2005 19.2 °C 13.2 °C 5.8 mm
07.07.2005 18.5 °C 12 °C 5.4 mm
08.07.2005 19 °C 12.4 °C 1.1 mm
09.07.2005 24.1 °C 10.7 °C 0 mm
10.07.2005 25.4 °C 14 °C 1.4 mm
11.07.2005 26.9 °C 15.1 °C 0 mm
12.07.2005 28 °C 15.8 °C 0 mm
13.07.2005 30 °C 16.4 °C 0 mm
14.07.2005 32 °C 17.6 °C 0 mm
15.07.2005 32.8 °C 18.6 °C 0 mm
16.07.2005 32.7 °C 20 °C 0 mm
17.07.2005 31 °C 19.5 °C 0 mm
18.07.2005 31.7 °C 18.8 °C 4.3 mm
19.07.2005 22.7 °C 17.1 °C 1.8 mm
20.07.2005 22.3 °C 15.4 °C 2.9 mm
21.07.2005 24.2 °C 14.5 °C 0 mm
22.07.2005 19.7 °C 15.5 °C 0.7 mm
23.07.2005 23.7 °C 14 °C 0 mm
24.07.2005 24 °C 17.4 °C 4.7 mm
25.07.2005 19.2 °C 17.2 °C 14.8 mm
26.07.2005 24.8 °C 17.4 °C 0 mm
27.07.2005 33 °C 17 °C 4.7 mm
28.07.2005 35.1 °C 22.6 °C 0 mm
29.07.2005 31.1 °C 18.8 °C 30.6 mm
30.07.2005 24.1 °C 18.7 °C 0.4 mm
31.07.2005 26 °C 14.9 °C 0 mm
01.08.2005 26.6 °C 14.7 °C 0 mm
02.08.2005 21.2 °C 15 °C 29.5 mm
03.08.2005 23.4 °C 14.9 °C 0 mm
04.08.2005 23.2 °C 13.2 °C 0.4 mm
05.08.2005 24.8 °C 12.9 °C 0.4 mm
06.08.2005 20.2 °C 14.4 °C 4.3 mm
07.08.2005 16.8 °C 12.1 °C 2.2 mm
08.08.2005 20.2 °C 10.6 °C 0 mm
09.08.2005 21.8 °C 12.6 °C 0 mm
10.08.2005 22.5 °C 11.5 °C 0 mm
11.08.2005 22.2 °C 11.6 °C 0 mm
12.08.2005 26.4 °C 14 °C 5.4 mm
13.08.2005 23.4 °C 13.4 °C 0 mm
14.08.2005 21.3 °C 13.6 °C 2.2 mm
15.08.2005 20.1 °C 12.5 °C 2.2 mm
16.08.2005 21.7 °C 14.2 °C 0 mm
17.08.2005 25.2 °C 12.8 °C 0 mm
18.08.2005 28.4 °C 15.4 °C 0 mm
19.08.2005 28 °C 17.9 °C 16.6 mm
20.08.2005 19.6 °C 16.9 °C 0.7 mm
21.08.2005 20.4 °C 15 °C 9 mm
22.08.2005 19.6 °C 16.2 °C 6.5 mm
23.08.2005 21.9 °C 15.2 °C 7.9 mm
24.08.2005 19.1 °C 16.1 °C 0.4 mm
25.08.2005 19.7 °C 16.8 °C 1.1 mm
26.08.2005 22.3 °C 13 °C 0 mm
27.08.2005 22.6 °C 11.3 °C 0 mm
28.08.2005 24.8 °C 13.5 °C 0 mm
29.08.2005 28.5 °C 13.1 °C 0 mm
30.08.2005 30.3 °C 16.6 °C 0 mm
31.08.2005 30.2 °C 17.4 °C 0 mm
*) Messwert für diesen Zeitpunkt noch nicht verfügbar
 Hinweis zur Datenqualität
∅ Temperatur

19.7 °C

Abweichung vom Mittel

+1 °C

Niederschlag

235.1 mm

Abweichung vom Mittel

106 %

35.1 °C

Lufttemperatur
28.07.2005

1028 hPa

Luftdruck
07.06.2005

49.9 km/h

Windböen
29.07.2005

235.06004 mm

Niederschlag
 

7.1 °C

Lufttemperatur
08.06.2005

*) °C

Bodentemperatur 5cm
01.01.1970

1002 hPa

Luftdruck
13.06.2005
*) Messwert für diesen Zeitpunkt noch nicht verfügbar
 Hinweis zur Datenqualität